VOZ63 YBBN-YSSY

Flight info

Callsign VOZ63
Flight time 1h 9m
Altitude 36000
Route BN H91 IGDAM H652 TESAT
Aircraft B738/M-SDE2E3FGHIRWXY/LB1

Departure

Time 2026-04-22 07:52
Airport Brisbane International Airport (YBBN)

Arrival

Time 2026-04-22 09:02
Airport Sydney Kingsford Smith International Airport (YSSY)
Time Latitude Longitude Altitude Speed Heading
2026-04-22 07:22 -27.38877 153.11917 23 ft 0 kts
2026-04-22 07:43 -27.38887 153.11915 -6 ft 2 kts
2026-04-22 07:43 -27.38903 153.11912 22 ft 2 kts
2026-04-22 07:43 -27.38919 153.11909 22 ft 2 kts 29°
2026-04-22 07:44 -27.38930 153.11897 21 ft 2 kts 75°
2026-04-22 07:44 -27.38930 153.11883 22 ft 0 kts 114°
2026-04-22 07:46 -27.38940 153.11906 21 ft 8 kts 117°
2026-04-22 07:46 -27.38979 153.11992 21 ft 14 kts 119°
2026-04-22 07:47 -27.39028 153.12076 23 ft 12 kts 117°
2026-04-22 07:47 -27.39032 153.12157 21 ft 10 kts 63°
2026-04-22 07:47 -27.38975 153.12203 22 ft 10 kts 28°
2026-04-22 07:47 -27.38892 153.12252 21 ft 20 kts 27°
2026-04-22 07:48 -27.38750 153.12331 21 ft 23 kts 26°
2026-04-22 07:48 -27.38629 153.12402 22 ft 19 kts 26°
2026-04-22 07:48 -27.38516 153.12466 23 ft 18 kts 26°
2026-04-22 07:48 -27.38408 153.12526 21 ft 17 kts 27°
2026-04-22 07:49 -27.38305 153.12586 21 ft 16 kts 26°
2026-04-22 07:49 -27.38206 153.12640 21 ft 15 kts 25°
2026-04-22 07:49 -27.38115 153.12693 22 ft 14 kts 27°
2026-04-22 07:49 -27.38030 153.12743 21 ft 13 kts 27°
2026-04-22 07:50 -27.37998 153.12824 21 ft 11 kts 103°
2026-04-22 07:50 -27.38030 153.12899 20 ft 10 kts 116°
2026-04-22 07:50 -27.38060 153.12966 20 ft 9 kts 117°
2026-04-22 07:50 -27.38092 153.13036 23 ft 10 kts 117°
2026-04-22 07:51 -27.38142 153.13045 23 ft 5 kts 207°
2026-04-22 07:51 -27.38144 153.13044 22 ft 0 kts 207°
2026-04-22 07:52 -27.38247 153.12985 23 ft 46 kts 207°
2026-04-22 07:52 -27.38746 153.12702 22 ft 113 kts 208°
2026-04-22 07:52 -27.39628 153.12225 94 ft 162 kts 201°
2026-04-22 07:52 -27.40661 153.11591 651 ft 176 kts 206°
2026-04-22 07:53 -27.41792 153.10874 1259 ft 195 kts 206°
2026-04-22 07:53 -27.43019 153.10113 2040 ft 204 kts 200°
2026-04-22 07:53 -27.44397 153.09807 2829 ft 206 kts 175°
2026-04-22 07:53 -27.45740 153.10403 3467 ft 214 kts 139°
2026-04-22 07:54 -27.46781 153.11652 4294 ft 222 kts 135°
2026-04-22 07:54 -27.47870 153.12909 5282 ft 227 kts 136°
2026-04-22 07:54 -27.49070 153.14068 6257 ft 228 kts 153°
2026-04-22 07:54 -27.50549 153.14608 7146 ft 232 kts 176°
2026-04-22 07:55 -27.52208 153.14420 7790 ft 248 kts 191°
2026-04-22 07:55 -27.53944 153.13987 8453 ft 263 kts 193°
2026-04-22 07:55 -27.55737 153.13450 9314 ft 270 kts 198°
2026-04-22 07:55 -27.57527 153.12739 10226 ft 276 kts 198°
2026-04-22 07:56 -27.59402 153.11999 10737 ft 294 kts 198°
2026-04-22 07:56 -27.61391 153.11221 11229 ft 311 kts 198°
2026-04-22 07:56 -27.63505 153.10446 11719 ft 328 kts 197°
2026-04-22 07:56 -27.65734 153.09715 12448 ft 336 kts 195°
2026-04-22 07:57 -27.67974 153.09007 13267 ft 341 kts 195°
2026-04-22 07:57 -27.70265 153.08267 14107 ft 345 kts 196°
2026-04-22 07:57 -27.72585 153.07492 14881 ft 349 kts 197°
2026-04-22 07:57 -27.74926 153.06698 15687 ft 352 kts 197°
2026-04-22 07:58 -27.77285 153.05900 16486 ft 356 kts 197°
2026-04-22 07:58 -27.79669 153.05100 17282 ft 359 kts 197°
2026-04-22 07:58 -27.82067 153.04293 18073 ft 362 kts 198°
2026-04-22 07:58 -27.84461 153.03359 18835 ft 363 kts 202°
2026-04-22 07:59 -27.86804 153.02295 19589 ft 364 kts 204°
2026-04-22 07:59 -27.89118 153.01200 20277 ft 366 kts 204°
2026-04-22 07:59 -27.91518 153.00101 20962 ft 369 kts 203°
2026-04-22 07:59 -27.93888 152.99066 21618 ft 372 kts 202°
2026-04-22 08:00 -27.96324 152.98025 22268 ft 375 kts 202°
2026-04-22 08:00 -27.98771 152.96971 22895 ft 378 kts 203°
2026-04-22 08:00 -28.01233 152.95893 23509 ft 381 kts 204°
2026-04-22 08:00 -28.03714 152.94796 24059 ft 384 kts 204°
2026-04-22 08:01 -28.06215 152.93690 24556 ft 387 kts 204°
2026-04-22 08:01 -28.08728 152.92584 25055 ft 389 kts 204°
2026-04-22 08:01 -28.11264 152.91469 25558 ft 392 kts 204°
2026-04-22 08:01 -28.13812 152.90340 26058 ft 393 kts 204°
2026-04-22 08:02 -28.16360 152.89205 26526 ft 395 kts 205°
2026-04-22 08:02 -28.18924 152.88060 26975 ft 398 kts 205°
2026-04-22 08:02 -28.21514 152.86907 27420 ft 400 kts 205°
2026-04-22 08:02 -28.24109 152.85753 27840 ft 402 kts 205°
2026-04-22 08:03 -28.26724 152.84590 28255 ft 404 kts 205°
2026-04-22 08:03 -28.29347 152.83422 28646 ft 406 kts 205°
2026-04-22 08:03 -28.31981 152.82248 29027 ft 408 kts 205°
2026-04-22 08:03 -28.34640 152.81061 29367 ft 411 kts 205°
2026-04-22 08:04 -28.37274 152.79886 29745 ft 413 kts 205°
2026-04-22 08:04 -28.39956 152.78688 30116 ft 416 kts 205°
2026-04-22 08:04 -28.42689 152.77468 30445 ft 418 kts 205°
2026-04-22 08:04 -28.45364 152.76273 30729 ft 419 kts 205°
2026-04-22 08:05 -28.48087 152.75055 31018 ft 421 kts 206°
2026-04-22 08:05 -28.50813 152.73836 31335 ft 421 kts 206°
2026-04-22 08:05 -28.53529 152.72621 31775 ft 419 kts 206°
2026-04-22 08:05 -28.56239 152.71409 32184 ft 417 kts 206°
2026-04-22 08:06 -28.58932 152.70202 32587 ft 415 kts 206°
2026-04-22 08:06 -28.61619 152.68996 33020 ft 413 kts 206°
2026-04-22 08:06 -28.64294 152.67796 33430 ft 412 kts 206°
2026-04-22 08:06 -28.66952 152.66602 33822 ft 411 kts 206°
2026-04-22 08:07 -28.69608 152.65409 34219 ft 409 kts 206°
2026-04-22 08:07 -28.72253 152.64221 34559 ft 408 kts 207°
2026-04-22 08:07 -28.74887 152.63036 34887 ft 407 kts 207°
2026-04-22 08:07 -28.77522 152.61851 35207 ft 406 kts 207°
2026-04-22 08:08 -28.80142 152.60671 35523 ft 405 kts 207°
2026-04-22 08:08 -28.82726 152.59507 35833 ft 404 kts 207°
2026-04-22 08:08 -28.85302 152.58266 36167 ft 399 kts 212°
2026-04-22 08:08 -28.87782 152.56820 36251 ft 403 kts 212°
2026-04-22 08:09 -28.92762 152.53863 36258 ft 401 kts 212°
2026-04-22 08:09 -28.97678 152.50929 36249 ft 398 kts 212°
2026-04-22 08:10 -29.02600 152.47998 36258 ft 400 kts 212°
2026-04-22 08:10 -29.07527 152.45064 36268 ft 399 kts 212°
2026-04-22 08:11 -29.12456 152.42121 36268 ft 399 kts 212°
2026-04-22 08:11 -29.17382 152.39177 36294 ft 399 kts 212°
2026-04-22 08:12 -29.22303 152.36234 36274 ft 399 kts 212°
2026-04-22 08:12 -29.27188 152.33309 36282 ft 399 kts 212°
2026-04-22 08:13 -29.32126 152.30349 36283 ft 400 kts 212°
2026-04-22 08:13 -29.37053 152.27393 36280 ft 400 kts 212°
2026-04-22 08:14 -29.41981 152.24432 36286 ft 400 kts 212°
2026-04-22 08:14 -29.46910 152.21468 36271 ft 400 kts 212°
2026-04-22 08:15 -29.51801 152.18523 36291 ft 399 kts 212°
2026-04-22 08:15 -29.56759 152.15535 36277 ft 400 kts 212°
2026-04-22 08:16 -29.61652 152.12582 36274 ft 400 kts 212°
2026-04-22 08:16 -29.66571 152.09610 36276 ft 399 kts 212°
2026-04-22 08:17 -29.71691 152.07085 36271 ft 408 kts 200°
2026-04-22 08:17 -29.77251 152.05577 36291 ft 410 kts 198°
2026-04-22 08:18 -29.82822 152.04171 36291 ft 410 kts 198°
2026-04-22 08:18 -29.88391 152.02713 36292 ft 410 kts 199°
2026-04-22 08:19 -29.93958 152.01246 36291 ft 410 kts 199°
2026-04-22 08:19 -29.99525 151.99795 36306 ft 410 kts 198°
2026-04-22 08:20 -30.05040 151.98351 36298 ft 409 kts 199°
2026-04-22 08:20 -30.10589 151.96893 36303 ft 408 kts 199°
2026-04-22 08:21 -30.16136 151.95436 36306 ft 409 kts 199°
2026-04-22 08:21 -30.21686 151.93977 36304 ft 409 kts 199°
2026-04-22 08:22 -30.27245 151.92513 36298 ft 410 kts 198°
2026-04-22 08:22 -30.32767 151.90920 36244 ft 407 kts 205°
2026-04-22 08:23 -30.37975 151.88576 36294 ft 391 kts 207°
2026-04-22 08:23 -30.43030 151.86192 36311 ft 396 kts 207°
2026-04-22 08:24 -30.48192 151.83776 36325 ft 403 kts 206°
2026-04-22 08:24 -30.53421 151.81357 36318 ft 405 kts 206°
2026-04-22 08:25 -30.58644 151.78920 36317 ft 404 kts 207°
2026-04-22 08:25 -30.62977 151.76893 36314 ft 403 kts 207°
2026-04-22 08:26 -30.68175 151.74463 36334 ft 403 kts 206°
2026-04-22 08:26 -30.73371 151.72032 36319 ft 402 kts 206°
2026-04-22 08:27 -30.79403 151.69206 36316 ft 401 kts 206°
2026-04-22 08:27 -30.83711 151.67184 36308 ft 402 kts 206°
2026-04-22 08:28 -30.88900 151.64747 36311 ft 402 kts 206°
2026-04-22 08:28 -30.94090 151.62307 36312 ft 402 kts 206°
2026-04-22 08:29 -30.99295 151.59855 36325 ft 405 kts 206°
2026-04-22 08:29 -31.04515 151.57396 36324 ft 405 kts 206°
2026-04-22 08:30 -31.09739 151.54932 36324 ft 404 kts 206°
2026-04-22 08:30 -31.14956 151.52466 36327 ft 404 kts 206°
2026-04-22 08:31 -31.20131 151.50018 36327 ft 404 kts 206°
2026-04-22 08:32 -31.27950 151.46315 36332 ft 404 kts 206°
2026-04-22 08:32 -31.33165 151.43840 36318 ft 404 kts 206°
2026-04-22 08:33 -31.38370 151.41368 36335 ft 403 kts 206°
2026-04-22 08:33 -31.43584 151.38996 36334 ft 402 kts 205°
2026-04-22 08:34 -31.48831 151.36707 36336 ft 402 kts 205°
2026-04-22 08:34 -31.54026 151.34375 36344 ft 402 kts 205°
2026-04-22 08:35 -31.59251 151.32026 36330 ft 403 kts 205°
2026-04-22 08:35 -31.64516 151.29674 36335 ft 404 kts 205°
2026-04-22 08:36 -31.69776 151.27315 36344 ft 404 kts 205°
2026-04-22 08:36 -31.75028 151.24954 36350 ft 404 kts 205°
2026-04-22 08:37 -31.80287 151.22590 36352 ft 404 kts 205°
2026-04-22 08:37 -31.85530 151.20230 36340 ft 404 kts 205°
2026-04-22 08:38 -31.90774 151.17865 36340 ft 403 kts 205°
2026-04-22 08:38 -31.96024 151.15498 36343 ft 404 kts 205°
2026-04-22 08:39 -32.01276 151.13149 36351 ft 404 kts 204°
2026-04-22 08:39 -32.06525 151.10799 36344 ft 403 kts 204°
2026-04-22 08:40 -32.11724 151.08461 36344 ft 403 kts 204°
2026-04-22 08:40 -32.16963 151.06104 36334 ft 403 kts 204°
2026-04-22 08:41 -32.22202 151.03747 36336 ft 403 kts 204°
2026-04-22 08:41 -32.27459 151.01376 36345 ft 406 kts 204°
2026-04-22 08:42 -32.32758 150.98998 36201 ft 410 kts 201°
2026-04-22 08:42 -32.35609 150.98418 35454 ft 423 kts 186°
2026-04-22 08:42 -32.38571 150.98402 34648 ft 429 kts 183°
2026-04-22 08:42 -32.41556 150.98577 33786 ft 427 kts 180°
2026-04-22 08:43 -32.44496 150.98878 32952 ft 420 kts 179°
2026-04-22 08:43 -32.47367 150.99168 32348 ft 407 kts 179°
2026-04-22 08:43 -32.50156 150.99382 31865 ft 394 kts 180°
2026-04-22 08:43 -32.52816 150.99535 31372 ft 382 kts 181°
2026-04-22 08:44 -32.55465 150.99679 30885 ft 381 kts 180°
2026-04-22 08:44 -32.58116 150.99844 30376 ft 382 kts 180°
2026-04-22 08:44 -32.60773 151.00031 29821 ft 382 kts 179°
2026-04-22 08:44 -32.63425 151.00227 29295 ft 381 kts 179°
2026-04-22 08:45 -32.66074 151.00417 28773 ft 380 kts 179°
2026-04-22 08:45 -32.68712 151.00597 28269 ft 379 kts 179°
2026-04-22 08:45 -32.71344 151.00774 27743 ft 379 kts 179°
2026-04-22 08:45 -32.73969 151.00952 27225 ft 378 kts 178°
2026-04-22 08:46 -32.76594 151.01132 26720 ft 377 kts 178°
2026-04-22 08:46 -32.79177 151.01313 26527 ft 368 kts 178°
2026-04-22 08:46 -32.81738 151.01491 26026 ft 373 kts 178°
2026-04-22 08:46 -32.84421 151.01673 25453 ft 397 kts 178°
2026-04-22 08:47 -32.87236 151.01864 24816 ft 409 kts 178°
2026-04-22 08:47 -32.90066 151.02060 24159 ft 408 kts 177°
2026-04-22 08:47 -32.92899 151.02259 23431 ft 407 kts 176°
2026-04-22 08:47 -32.95717 151.02456 22743 ft 403 kts 176°
2026-04-22 08:48 -32.98505 151.02649 22073 ft 400 kts 176°
2026-04-22 08:48 -33.01284 151.02840 21399 ft 398 kts 176°
2026-04-22 08:48 -33.04045 151.03031 20729 ft 396 kts 176°
2026-04-22 08:48 -33.06746 151.03218 20074 ft 394 kts 176°
2026-04-22 08:49 -33.09521 151.03411 19375 ft 393 kts 175°
2026-04-22 08:49 -33.12247 151.03601 18702 ft 392 kts 175°
2026-04-22 08:49 -33.14933 151.03788 17968 ft 391 kts 175°
2026-04-22 08:49 -33.17642 151.03976 17263 ft 389 kts 175°
2026-04-22 08:50 -33.20345 151.04164 16564 ft 387 kts 174°
2026-04-22 08:50 -33.23025 151.04352 15847 ft 386 kts 173°
2026-04-22 08:50 -33.25684 151.04778 15112 ft 385 kts 169°
2026-04-22 08:50 -33.28326 151.05265 14374 ft 385 kts 169°
2026-04-22 08:51 -33.30973 151.05774 13561 ft 381 kts 169°
2026-04-22 08:51 -33.33524 151.06271 12817 ft 363 kts 169°
2026-04-22 08:51 -33.35983 151.06748 12119 ft 357 kts 169°
2026-04-22 08:51 -33.38406 151.07214 11402 ft 346 kts 169°
2026-04-22 08:52 -33.40732 151.07658 11036 ft 325 kts 169°
2026-04-22 08:52 -33.42864 151.08063 10938 ft 299 kts 169°
2026-04-22 08:52 -33.44860 151.08445 10833 ft 283 kts 169°
2026-04-22 08:52 -33.46789 151.08818 10711 ft 279 kts 169°
2026-04-22 08:53 -33.48692 151.09187 10600 ft 273 kts 169°
2026-04-22 08:53 -33.50535 151.09542 10485 ft 270 kts 168°
2026-04-22 08:53 -33.52385 151.09898 10363 ft 267 kts 169°
2026-04-22 08:53 -33.54229 151.10254 9953 ft 271 kts 169°
2026-04-22 08:54 -33.56093 151.10614 9544 ft 271 kts 169°
2026-04-22 08:54 -33.57953 151.10973 9134 ft 271 kts 169°
2026-04-22 08:54 -33.59815 151.11331 8731 ft 271 kts 169°
2026-04-22 08:54 -33.61674 151.11689 8335 ft 270 kts 169°
2026-04-22 08:55 -33.63536 151.12052 7865 ft 273 kts 170°
2026-04-22 08:55 -33.65379 151.12418 7524 ft 269 kts 170°
2026-04-22 08:55 -33.67208 151.12782 7389 ft 259 kts 170°
2026-04-22 08:55 -33.68989 151.13135 6911 ft 260 kts 170°
2026-04-22 08:56 -33.70763 151.13486 6355 ft 256 kts 170°
2026-04-22 08:56 -33.72475 151.13828 6074 ft 237 kts 170°
2026-04-22 08:56 -33.73997 151.14134 6023 ft 205 kts 170°
2026-04-22 08:56 -33.75348 151.14399 5766 ft 195 kts 171°
2026-04-22 08:57 -33.76667 151.14600 5299 ft 186 kts 173°
2026-04-22 08:57 -33.77948 151.14739 4674 ft 185 kts 174°
2026-04-22 08:57 -33.79110 151.14980 4723 ft 155 kts 167°
2026-04-22 08:57 -33.80203 151.15264 4572 ft 162 kts 168°
2026-04-22 08:58 -33.81259 151.15521 4397 ft 152 kts 168°
2026-04-22 08:58 -33.82327 151.15725 4071 ft 153 kts 172°
2026-04-22 08:58 -33.83386 151.15886 3607 ft 152 kts 171°
2026-04-22 08:58 -33.84437 151.16045 3133 ft 152 kts 172°
2026-04-22 08:59 -33.85476 151.16228 2701 ft 149 kts 168°
2026-04-22 08:59 -33.86437 151.16546 2461 ft 139 kts 162°
2026-04-22 08:59 -33.87373 151.16859 2089 ft 138 kts 166°
2026-04-22 08:59 -33.88316 151.17106 1719 ft 143 kts 167°
2026-04-22 09:00 -33.89289 151.17336 1436 ft 138 kts 166°
2026-04-22 09:00 -33.90218 151.17609 1112 ft 138 kts 164°
2026-04-22 09:00 -33.91134 151.17849 854 ft 132 kts 167°
2026-04-22 09:00 -33.92055 151.18085 698 ft 135 kts 166°
2026-04-22 09:01 -33.92958 151.18307 470 ft 135 kts 168°
2026-04-22 09:01 -33.93868 151.18539 303 ft 128 kts 166°
2026-04-22 09:01 -33.94745 151.18771 124 ft 132 kts 166°
2026-04-22 09:01 -33.95634 151.19004 27 ft 121 kts 167°
2026-04-22 09:02 -33.96222 151.19154 29 ft 54 kts 168°
2026-04-22 09:02 -33.96431 151.19207 26 ft 29 kts 169°
2026-04-22 09:02 -33.96669 151.19184 29 ft 30 kts 200°
2026-04-22 09:02 -33.96704 151.19133 28 ft 0 kts 263°
2026-04-22 09:03 -33.96697 151.19101 29 ft 13 kts 295°
2026-04-22 09:03 -33.96602 151.19057 29 ft 16 kts 347°
2026-04-22 09:03 -33.96482 151.19024 29 ft 19 kts 347°
2026-04-22 09:03 -33.96344 151.18986 29 ft 22 kts 347°
2026-04-22 09:04 -33.96186 151.18947 29 ft 25 kts 348°
2026-04-22 09:04 -33.96010 151.18898 29 ft 27 kts 347°
2026-04-22 09:04 -33.95813 151.18848 28 ft 30 kts 348°
2026-04-22 09:04 -33.95600 151.18795 28 ft 33 kts 348°
2026-04-22 09:05 -33.95377 151.18735 29 ft 28 kts 347°
2026-04-22 09:05 -33.95210 151.18647 29 ft 26 kts 318°
2026-04-22 09:05 -33.95110 151.18480 30 ft 25 kts 271°
2026-04-22 09:05 -33.95143 151.18281 30 ft 24 kts 257°
2026-04-22 09:06 -33.95178 151.18092 30 ft 23 kts 258°
2026-04-22 09:06 -33.95129 151.17949 30 ft 21 kts 346°
2026-04-22 09:06 -33.94990 151.17913 29 ft 20 kts 347°
2026-04-22 09:06 -33.94851 151.17877 29 ft 20 kts 348°
2026-04-22 09:07 -33.94715 151.17842 29 ft 20 kts 348°
2026-04-22 09:07 -33.94581 151.17809 29 ft 19 kts 348°
2026-04-22 09:07 -33.94451 151.17772 29 ft 19 kts 346°
2026-04-22 09:07 -33.94329 151.17735 28 ft 16 kts 346°
2026-04-22 09:08 -33.94239 151.17707 29 ft 11 kts 346°
2026-04-22 09:08 -33.94171 151.17687 28 ft 7 kts 346°
2026-04-22 09:08 -33.94129 151.17674 28 ft 8 kts 346°
2026-04-22 09:08 -33.94018 151.17645 27 ft 23 kts 347°
2026-04-22 09:09 -33.93866 151.17605 28 ft 21 kts 347°
2026-04-22 09:09 -33.93726 151.17568 28 ft 20 kts 348°
2026-04-22 09:09 -33.93642 151.17646 29 ft 17 kts 90°
2026-04-22 09:09 -33.93657 151.17775 29 ft 13 kts 93°
2026-04-22 09:10 -33.93621 151.17849 29 ft 9 kts 78°
2026-04-22 09:10 -33.93624 151.17892 29 ft 0 kts 98°